STARLINK-5084, 54851

Orbit data source: Space-Track

STARLINK-5084, 54851 is a payload satellite owned by SpaceX/Seattle (US) in LEO that was launched on Wed, 28 Dec 2022 UTC via an FALCON 9 launch vehicle from the Air Force Eastern Test Range (AFETR). Payload-class satellites include a variety of spacecraft equipped with specific instruments for various scientific and technological missions. These include communications satellites like Starlink; space stations such as the ISS; scientific satellites like the Hubble; Earth observation satellites from companies like Planet Labs, Umbra, and HawkEye 360; GPS; miniature CubeSats for education and research; and military/defense satellites.

Loading next visibility...
Identifier
54851, 2022-177AH
Orbit
LEO
Country
Flag of USUS
Related business
Manufacturer
SpaceX/Seattle
Mission
Operational Commercial Communications
Bus & Motor
STARLINK, Unknown motor
Mass
305 kg wet, ~290 kg dry
Launch date (UTC)
2022-12-28 (3 years ago)
Launch vehicle
FALCON 9
Launch site
Air Force Eastern Test Range (AFETR)
Object type
Payload
Rocket body
Debris
Shape & HBR
Box + 1 Pan, 10.1 m
Radar Cross Section
13.562 m², Large (>1 m²)

Expand to show TLE details & history
Last TLE update: 2 days ago

TLE from 2 days ago
0 STARLINK-5084
1 54851U 22177AH  26171.27929313 -.00000291  00000-0 -10468-5 0  9993
2 54851  43.0048 261.9345 0001886 281.4996  78.5644 15.27574663192783
Epoch: 2026-06-20T06:42Z
TLE epoch observation values (Epoch: 2026-06-20T06:42:10.926Z)
Latitude
-0.00001°
Longitude
-107.10723°
Altitude
482.585 km
Speed
7.626 km/s
True Right ascension
17h 27m 44s
True Declination
0° 00' 00"
Sunlit
Object was in full shadow at epoch
Visualization orbit readout
Latitude
Unknown
Longitude
Unknown
Altitude
Unknown
Speed
Unknown
Apparent Right ascension
Unknown
Apparent Declination
Unknown
Sunlit
N/A
Visualization observer readout
Local Sidereal Time
02:13:12
Azimuth
Unknown
Elevation
Unknown
Doppler factor
Unknown
Orbital elements
Apogee altitude
486.304 km
Perigee altitude
483.715 km
Semi-major axis
6,863.146 km
Eccentricity
0.00019
Inclination
43.0048°
RAAN
261.9345°
Arg. of periapsis
281.4996°
True anomaly
78.58558°
Mean anomaly
78.5644°
Eccentric anomaly
78.57499°
Mean motion
3.81732 °/min
Orbital period
94.31 mins
BSTAR
-0.0000010468
Loading maneuver chart data...
Computing Atmospheric mass density...

Documentation

Showing up to 5 results
|